[Date Prev][Date Next][Thread Prev][Thread Next][Date Index][Thread Index]

[jamsat-news:1220] jas2info #170



========================   最新情報   ==============================

        Last updated :Mon.07-Feb.-2000 18:40 (JST) #170

====================================================================
   
  1)アマチュア通信衛星情報 FOシリーズの軌道要素、テレメトリ、
   QSOの状況等をまとめてみました.
   
   FO-29の2月7日(月)のテレメトリはJARLのホームページのスケジュールのとうり
  アナログ系運用、CWのテレメトリ運用周波数は435.803〜792MHzのUSBで
  12:03〜23(JST)に受信できました.

 As17157C1
 07Feb2000
 12:04〜12:23(JST)

 HI HI AE C7 88 51    41 FF 0D 00 35 76 3D 8D 5F 94 92 B0 72 B4 B2 B4 B4 B4 
 HI HI AE C7 88 51 0E 41 FF 0D 00 35 75 43 92 60 93 90 B0 77 B4 B2 B3 B4 B4 
 HI HI AE C7 88 51 13 41 FF 0D 00 35 74 4A 92 5F 92 90 B0 7A B4 B2 B3 B4 B4
 HI HI AE C7 88 51 18 41 FF 0D 00 35 72 4D 89 5F 92 90 B0 80 B4 B2 B3 B4 B4 
 HI HI AE C7 88 51    41 FF 0D 00 35 70 4D 8A 5F 92 90 B0 75 B4 B2 B3 B4 B4 
 HI HI AE C7 88 51 03 41 FF 0D 00 35 93 4D 90 60 92 90 B0 80 B4 B1 B3 B3 B4
 HI HI AE C7 88 51 08 41 FF 0D 00 35 7B 50 90 60 92 90 B0 6B B3 B1 B3 B3 B4 
 HI HI AE C7 88 51 0E 41 FF 1A 0H 55 61 58 90 5F 92 90 B0 74 B3 B1 B3 B3 B4 
 HI HI AE C7 88 51 13 41 FF 0D 00 35 3C 65 8A 60 92 90 B0 8E B3 B1 B2 B3 B4 
 HI HI AE C7 88 51 E5 41 FF 0D 00 35 5A 8A 81 5F 92 90 B0 76 B3 B1 B2 B3 B4 
 HI HI AE C7 88 51 1D 41 0A 0D 00 35 

 AS17158C1
 07Feb2000
 13:51〜14:08(JST)

 HI HI AE C7 88 55 00 41 FF 0D 00 35 6B 3C 92 60 92 90 B1 8B B5 B2 B4 B4 B4 
 HI HI AE C7 88 55 06 41 FF 0D 00 35 66 3D 93 60 92 91 B0 7A B5 B2 B4 B4 B4 
 HI HI AE C7 88 55 0B 41 FF 0D 00 35 6A 3E 90 60 92 90 B0 75 B4 B2 B4 B4 B4 
 HI HI AE C7 88 55 1F 41 FF 0D 00 35 56 40 8F 5F 92 8F B0 6B B4 B1 B3 B4 B4 
 HI HI AE C7 88 55 04 41 FF 0D 00 35 8D 51 91 60 92 8F B0 68 B4 B1 B3 B4 B4 
 HI HI AE C7 88 55 09 41 FF 0D 00 35 8A 4B 93 5F 92 90 B0 8D B4 B1 B3 B3 B4 
 HI HI AE C7 88 55 0F 41 FF 0D 00 35 4F 46 8D 5F 92 90 B0 6E B3 B1 B3 B3 B4 
 HI HI AE C7 88 55 15 41 FF 0D 00 35 45 50 8D 60 92 90 B0 D0 B3 B1 B3 B3 B4 
 HI HI AE C7 88 55 19 41 FF 0D 00 35 81 5F 83 60 92 90 B0 96 B3 B0 B3 B3 B4 
 HI HI AE C7 88 55 1E 41 FF 0D 00 35 A0 64 8B 60 92 90 B0 6E B3 B0 B2 B3 B4 
 HI HI AE C7 88 55 04 41 FF 0D 00 35 67 63 8F 60 92 90 B0 7D B3 B0 B2 B3 B3 
 HI HI AE C7 88 55 09 41 FF 0D 00 35 2F 66 8E 60 93 90 B0 A2 B3 B0 B2 B3 B4 
 HI HI AE C7 88 55 0E 41 FF 0D 00 35 56 6B 88 60 93 90 B0 8E B3 B0 B2 B2 B4 
 HI HI AE C7 88 55 13 41 FF 0D 00 35 9F 73 88 60 93 90 B0 66 B2 B0 B2 B2 B4 
 HI HI AE C7 88 55 19 41 FF 0D 00 35 95 80 8B 60 93 90 B0 62 B2 AF B1 B2 B4 
  
------------------------- FO-29の軌道要素 -----------------------------------------        
 
  ■ 軌道要素1:「jamsat−keps:964」より              
            SB KEPS @ AMSAT  $ORB00035.N
                 2Line Orbital Elements 00035.AMSAT

 HR AMSAT ORBITAL ELEMENTS FOR AMATEUR SATELLITES IN NASA FORMAT
 FROM WA5QGD FORT WORTH,TX February 4, 2000
 SEND SUBSCRIBE/UNSUBSCRIBE TO majordomo@amsat.org ONLY
 BID: ORB00035.N

 DECODE 2-LINE ELSETS WITH THE FOLLOWING KEY:
 1 AAAAAU 00  0  0 BBBBB.BBBBBBBB  .CCCCCCCC  00000-0  00000-0 0  DDDZ
 2 AAAAA EEE.EEEE FFF.FFFF GGGGGGG HHH.HHHH III.IIII JJ.JJJJJJJJKKKKKZ
 KEY: A-CATALOGNUM B-EPOCHTIME C-DECAY D-ELSETNUM E-INCLINATION F-RAAN
 G-ECCENTRICITY H-ARGPERIGEE I-MNANOM J-MNMOTION K-ORBITNUM Z-CHECKSUM
 TO ALL RADIO AMATEURS BT
 
 FO-29
 1 24278U 96046B   00033.83723232  .00000005  00000-0  42476-4 0  3057
 2 24278  98.5879 319.4466 0350809 217.0577 140.5866 13.52699131170994
  
 ■ 軌道要素2:「jamsat−keps:965」より                         
         SB KEPS @ AMSAT  $ORB00035.O
             Orbital Elements  00035.OSCAR

 HR AMSAT ORBITAL ELEMENTS FOR OSCAR SATELLITES
 FROM WA5QGD FORT WORTH,TX February 4, 2000
 SEND SUBSCRIBE/UNSUBSCRIBE TO majordomo@amsat.org ONLY
 BID: ORB00035.O
 TO ALL RADIO AMATEURS BT

  Satellite: FO-29
 Catalog number: 24278
 Epoch time:      00033.83723232
 Element set:     305
 Inclination:       98.5879 deg
 RA of node:       319.4466 deg
 Eccentricity:    0.0350809
 Arg of perigee:   217.0577 deg
 Mean anomaly:     140.5866 deg
 Mean motion:   13.52699131 rev/day
 Decay rate:        5.0e-08 rev/day^2
 Epoch rev:           17099
 Checksum:              324
-------------------  FO-29(JAS-2)のテレメトリに関する情報  ------------------------
 
 2)上記の2月7日(月)の13:51(JST)のCWテレメトリの最終行の分析結果です.

 AS17158C1
 01.Feb.2000
 13:51〜14:08(JST)

 HI HI AE C7 88 55 19 41 FF 0D 00 35 95 80 8B 60 93 90 B0 62 B2 AF B1 B2 B4 
 
 テレメトリ    内   容        換算値   単 位
 3C   磁気センサーZ軸=  73039.2 [nT]
 3D   磁気センサX軸 =  62745.1 [nT]
 4A   太陽電池発生電流=   1362.8 [mA]
 4B   B充放電電流  =   -118.4 [mA]
 4C   B端子電圧   =     15.8  [V]
 4D   B中間端子電圧 =     6.9  [V]
 5A   バス電圧    =     17.3  [V]
 5B   JTA送信電力 =      538.9 [mW]
 5C   構体温度1   =       12.8 [℃]
 5D   構体温度2   =       13.9 [℃]
 6A   構体温度3   =       13.1 [℃]
 6B   構体温度4   =       12.8 [℃]
 6C   Bセル温度   =       12.0 [℃]

 * OSはWindows 2000,Office 2000 にて計算処理.

 ==================================================================================

 3)JARL のホームページに運用予定が記載されていましたのでご紹介します.
       ( http://www.jarl.or.jp/Japanese/3_Fuji/uy.htm )

        ■ ふじ3号/FOー29/JAS-2 ■  
   
     *** 運用予定について ***
    
  2月07日 〜 02月21日   アナログ系運用
  2月22日 〜 02月27日   デジタル系1200bpsメールボックス運用
  2月28日 〜 03月05日   アナログ系運用

 *なお,運用予定は都合により変更することがありますのでご了承願います。

 照会先 : lab@jarl.or.jp

 最新の情報はテレホンサービス(:03−3942−1000)をお聞きください。
   
 以後の運用に付きましては2月下旬にお知らせいたします。

-----------------------    FO-20(JAS-1b)道要素   -------------------------------
 4)
 ■ 軌道要素1 :出典はFO-29「ふじ3号」に同じ.
  
  FO-20
 1 20480U 90013C   00033.95709756 -.00000022  00000-0  24207-4 0 02189
 2 20480 099.0319 189.8176 0540943 001.6176 358.6523 12.83262482467932
 
 ■ 軌道要素2 :出典はFO-29「ふじ3号」に同じ.
               
  Satellite: FO-20
 Catalog number: 20480
 Epoch time:      00033.95709756
 Element set:    0218
 Inclination:      099.0319 deg
 RA of node:       189.8176 deg
 Eccentricity:    0.0540943
 Arg of perigee:   001.6176 deg
 Mean anomaly:     358.6523 deg
 Mean motion:   12.83262482 rev/day
 Decay rate:       -2.2e-07 rev/day^2
 Epoch rev:           46793
 Checksum:              313
--------------------------------------------------------------------------------
 5)         ■ ふじ2号/FO−20/JAS-1b ■      
            
          「ふじ2号」 現況                                                                                  
             
   JAS-1b(ふじ2号)のCWテレメトリ信号に,1997年10月12日12時(JST)の
 日本上空通過時,3桁の数字が繰り返されるはずが3個の長音の繰り返しとなっているという
 異常が発見されました。この不具合は次の通過時からは回復していましたが13日15時20分の
 通過時に再び観測されました。現在はA0の送信が続いています。衛星のアナログ系中継モード
 動作は異常が無く,正常時のテレメトリ内容からは衛星の動作に異常は認められません。従って,
 直ちに衛星のミッションに影響することは無いと予想されますので,当面はアナログ系中継
 モードを継続します。衛星は既に打ち上げてから7年8ヶ月を経ておりますので,今後は監視を
 強化する予定です。アマチュア各位のレポートをお待ちします。
-------------------------------------------------------------------------------- 
  1997年10月14日 00時35分 確認のテレメトリ音 151 KB (A0) 
  1997年10月14日 11時10分 確認のテレメトリ音 216 KB (異常キーイング) 

  以上 JARLのホ−ムページの http://www.jarl.or.jp/Japanese/3_Fuji/fuji.htm
                                           
   =============   JAS-2 (ふじ3号)と現在までの情報   ===========
  
  A.電話によるふじ3号の運用情報
      社団法人日本アマチュア連盟によるサービス
           TEL .   03− 3942 − 1000
  B.アマチュア無線FAXサービス
      JARLによるふじ3号の軌道情報(オービットカレンダー)
         FAX No.  03− 3233 −0055
  C.WWWブラウザで情報を簡単に見れる人のためにJAS−2
     ふじ3号の衛星としての運用されるまでの名前)の概要、打ち上げ
     までの状況、運用中における状況を説明したホームページを紹介し
     ておきます.
     社団法人日本アマチュア無線連盟(JARL)のホームページ

          http://www.jarl.or.jp/Japanese/3_Fuji
 
     宇宙開発事業団(NASDA)ホームページ 
          http://www.nasda.go.jp/
         打上げ衛星 :地球観測プラットフォーム技術衛星(ADEOS) 
                       アマチュア衛星3号(JAS-2)
          http://yyy.tksc.nasda.go.jp/Home/Press/Press-j/jas-2_j.html        

  D.JAMSATによる軌道情報の活用
        JAMSATのホームページまたはjamsat−kepsの軌道要素より
      衛星の軌道情報を得る.
     JAMSATホームページ
               URL    http://www.jamsat.or.jp
       上記ホームページでは各地で行われるアマチュア通信衛星に関する
      ミューティングのお知らせや世界のアマチュア衛星に関する情報が
      満載されています.
 =========================================================================  
     JAMSATのメンバーのご協力によりJH6MME(高山 秀造)が
    執筆・編集を担当しております.ご指摘の意見、疑問やこのようにしたら
    というアイデアがありましたら小さなことでもかまいませんので気軽に下
    記アドレスまでご連絡ください.jamsat−newsからjas2
    infoへの転載をJH4PHW局坂井さんに担当して頂いております.  
                  E-mail : jh6mme@jamsat.or.jp : jh4phw@jamsat.or.jp
 ===============================   END  ===============================